Weather History for Abilene, TX

Change the Weather History Date:

Tuesday, March 11, 2014

  Actual Average Record
Temperature  
Mean Temperature 71 °F 55 °F  
Max Temperature 92 °F 67 °F 92 °F (1967)
Min Temperature 49 °F 43 °F 9 °F (1948)
Degree Days  
Heating Degree Days 0 11  
Month to date heating degree days 181 132  
Since 1 July heating degree days 2543 2265  
Cooling Degree Days 6 1  
Month to date cooling degree days 6 6  
Year to date cooling degree days 11 11  
Growing Degree Days 21 (Base 50)    
Moisture  
Dew Point 38 °F    
Average Humidity 54    
Maximum Humidity 96    
Minimum Humidity 11    
Precipitation  
Precipitation 0.00 in 0.05 in 2.19 in (1902)
Month to date precipitation 0.03 0.62  
Year to date precipitation 0.52 3.00  
Sea Level Pressure  
Sea Level Pressure 29.67 in    
Wind  
Wind Speed 19 mph (SW)    
Max Wind Speed 38 mph    
Max Gust Speed 49 mph    
Visibility 9 miles    
Events      
T = Trace of Precipitation, MM = Missing Value Source: NWS Daily Summary

Daily Weather History Graph

Daily Weather History Graph

Search for Another Location

Airport:

Trip Planner

Search our weather history database for the weather conditions in past years. The results will help you decide how hot, cold, wet, or windy it might be!

Date:

Astronomy

Mar. 11, 2014 Rise Set
Actual Time 7:53 AM CDT 7:43 PM CDT
Civil Twilight 7:29 AM CDT 8:08 PM CDT
Nautical Twilight 7:01 AM CDT 8:36 PM CDT
Astronomical Twilight 6:32 AM CDT 9:05 PM CDT
Moon 3:33 PM CDT (3/11) 4:36 AM CDT (3/11)
Length of Visible Light 12h 38m
Length of Day
11h 49m
Waxing Gibbous, 78% of the Moon is Illuminated
Mar 11
Waxing Gibbous
Mar 16
Full
Mar 23
Last Quarter
Mar 30
New
Apr 7
First Quarter

Hourly Weather History & Observations

Time (CDT) Temp. Dew Point Humidity Pressure Visibility Wind Dir Wind Speed Gust Speed Precip Events Conditions
12:52 AM 59.0 °F 30.9 °F 35% 29.78 in 10.0 mi South 13.8 mph 21.9 mph N/A   Clear
1:52 AM 57.0 °F 30.9 °F 37% 29.75 in 10.0 mi South 15.0 mph 25.3 mph N/A   Clear
2:52 AM 55.9 °F 30.9 °F 39% 29.73 in 10.0 mi SSW 18.4 mph - N/A   Clear
3:52 AM 55.0 °F 30.9 °F 40% 29.71 in 10.0 mi SSW 17.3 mph - N/A   Clear
4:52 AM 54.0 °F 51.1 °F 90% 29.68 in 10.0 mi SSW 18.4 mph 23.0 mph N/A   Clear
5:52 AM 52.0 °F 50.0 °F 93% 29.66 in 10.0 mi South 13.8 mph - N/A   Clear
6:04 AM 52.0 °F 50.0 °F 93% 29.72 in 10.0 mi SSW 13.8 mph - N/A   Scattered Clouds
6:15 AM 51.1 °F 50.0 °F 96% 29.71 in 10.0 mi South 13.8 mph - N/A   Mostly Cloudy
6:52 AM 51.1 °F 50.0 °F 96% 29.67 in 10.0 mi SSW 13.8 mph 20.7 mph N/A   Mostly Cloudy
7:37 AM 51.1 °F 48.9 °F 92% 29.71 in 10.0 mi SSW 10.4 mph - N/A   Scattered Clouds
7:52 AM 51.1 °F 48.9 °F 92% 29.66 in 10.0 mi South 12.7 mph - N/A   Partly Cloudy
8:52 AM 53.1 °F 50.0 °F 89% 29.68 in 10.0 mi SSW 10.4 mph - N/A   Clear
9:52 AM 55.9 °F 48.9 °F 77% 29.67 in 10.0 mi SSW 19.6 mph - N/A   Clear
10:52 AM 61.0 °F 48.9 °F 64% 29.65 in 10.0 mi SSW 19.6 mph - N/A   Clear
11:52 AM 68.0 °F 46.9 °F 47% 29.64 in 10.0 mi SW 16.1 mph - N/A   Clear
12:52 PM 75.0 °F 45.0 °F 34% 29.60 in 10.0 mi SW 17.3 mph - N/A   Clear
1:52 PM 82.0 °F 37.9 °F 21% 29.55 in 10.0 mi SW 19.6 mph 25.3 mph N/A   Clear
2:52 PM 88.0 °F 27.0 °F 11% 29.51 in 10.0 mi West 18.4 mph 31.1 mph N/A   Clear
3:52 PM 90.0 °F 30.9 °F 12% 29.48 in 9.0 mi WNW 21.9 mph 39.1 mph N/A   Widespread Dust
4:52 PM 90.0 °F 30.9 °F 12% 29.48 in 10.0 mi WNW 23.0 mph 35.7 mph N/A   Widespread Dust
5:52 PM 88.0 °F 30.0 °F 12% 29.50 in 5.0 mi West 27.6 mph 33.4 mph N/A   Haze
6:52 PM 84.9 °F 28.0 °F 13% 29.53 in 5.0 mi WNW 11.5 mph 24.2 mph N/A   Haze
7:35 PM 80.1 °F 25.0 °F 13% 29.62 in 10.0 mi North 16.1 mph - N/A   Widespread Dust
7:52 PM 78.1 °F 23.0 °F 13% 29.59 in 10.0 mi North 11.5 mph - N/A   Widespread Dust
8:52 PM 75.0 °F 24.1 °F 15% 29.64 in 10.0 mi North 18.4 mph 26.5 mph N/A   Widespread Dust
9:52 PM 66.9 °F 36.0 °F 32% 29.74 in 10.0 mi North 25.3 mph 38.0 mph N/A   Clear
10:52 PM 57.9 °F 34.0 °F 41% 29.88 in 7.0 mi North 31.1 mph 41.4 mph N/A   Widespread Dust
11:17 PM 55.0 °F 34.0 °F 45% 29.97 in 6.0 mi North 33.4 mph 44.9 mph N/A   Haze
11:52 PM 51.1 °F 33.1 °F 50% 29.98 in 7.0 mi North 28.8 mph 49.5 mph N/A   Widespread Dust